Retour au catalogue

ZHUHAI-1 03E

ActifScienceSSO
NORAD 44539·PAYLOAD·🇨🇳 China

Lancé Sep 19, 2019 depuis Jiuquan Satellite Launch Center

Loading…

Prochains Passages (prochaines 24 heures)

TLE

FraisSource: Space-Track

Époque: Sep 14, 2026, 13:52 UTC

1 44539U 19060F   26257.57791331  .00014824  00000-0  33017-3 0  9995
2 44539  97.5730  50.8739 0006418  65.3554 294.8361 15.43698613389545

Suivez ZHUHAI-1 03E en temps réel avec AllMySat

Download on the App Store